1489096800.2,43095,9.5,73064.8,-8.61,-40.03,-40.73,0,*53
1489096801.47,43096,9.5,73060.8,-8.61,-40.15,-40.79,0,*5D
1489096802.7,43097,9.5,73064.0,-8.59,-39.59,-40.35,0,*59
1489096803.97,43098,9.56,73070.8,-8.61,-40.41,-41.03,0,*5E
1489096805.17,43099,9.5,73070.3,-8.59,-40.53,-41.17,0,*52
1489096806.41,43100,9.5,73066.8,-8.59,-40.35,-40.97,0,*5A
1489096807.65,43101,9.56,73072.0,-8.59,-40.29,-40.79,0,*56
1489096808.95,43102,9.56,73074.5,-8.61,-40.41,-41.23,0,*5E
1489096810.23,43103,9.56,73072.3,-8.61,-40.59,-41.23,0,*56
1489096811.5,43104,9.5,73072.0,-8.61,-40.59,-41.41,0,*55
1489096812.78,43105,9.5,73068.5,-8.61,-40.59,-41.35,0,*57
1489096814.07,43106,9.5,73072.8,-8.61,-40.59,-41.35,0,*54
1489096815.34,43107,9.5,73074.8,-8.61,-40.41,-41.03,0,*59
1489096816.61,43108,9.5,73070.8,-8.61,-40.35,-40.97,0,*59
1489096817.86,43109,9.56,73074.5,-8.59,-40.15,-40.85,0,*52
1489096819.14,43110,9.5,73070.5,-8.61,-40.21,-40.97,0,*55
1489096820.37,43111,9.5,73072.0,-8.59,-39.97,-40.53,0,*54
1489096821.61,43112,9.5,73078.0,-8.61,-40.03,-40.73,0,*5D
1489096822.85,43113,9.5,73076.0,-8.61,-39.85,-40.53,0,*5E
1489096824.12,43114,9.5,73074.5,-8.61,-39.97,-40.53,0,*5A
1489096825.35,43115,9.5,73074.0,-8.59,-39.71,-40.47,0,*5D
1489096826.57,43116,9.5,73076.0,-8.59,-40.15,-40.91,0,*59
1489096827.85,43117,9.5,73074.0,-8.61,-40.21,-40.79,0,*52
1489096829.11,43118,9.5,73074.5,-8.55,-40.29,-40.97,0,*52
1489096830.34,43119,9.5,73076.8,-8.55,-40.15,-40.79,0,*5C
1489096831.58,43120,9.5,73078.0,-8.55,-40.35,-40.97,0,*54
1489096832.84,43121,9.5,73076.0,-8.55,-40.29,-40.97,0,*58
1489096834.05,43122,9.5,73074.8,-8.55,-40.35,-41.11,0,*59
1489096835.25,43123,9.56,73078.5,-8.55,-40.53,-41.17,0,*5E
1489096836.45,43124,9.5,73078.0,-8.59,-40.65,-41.17,0,*50
1489096837.65,43125,9.56,73076.3,-8.59,-40.65,-41.29,0,*5C
1489096838.85,43126,9.5,73074.8,-8.59,-40.65,-41.29,0,*5F
1489096840.11,43127,9.5,73078.0,-8.61,-40.41,-41.17,0,*5E
1489096841.34,43128,9.5,73074.5,-8.59,-40.29,-40.91,0,*5B
1489096842.61,43129,9.5,73074.3,-8.61,-40.53,-40.97,0,*5A
1489096843.85,43130,9.56,73076.8,-8.59,-40.29,-40.79,0,*54
1489096845.07,43131,9.56,73080.0,-8.59,-40.15,-40.73,0,*50
1489096846.3,43132,9.56,73076.3,-8.55,-39.97,-40.65,0,*5C
1489096847.51,43133,9.5,73076.3,-8.59,-40.15,-40.53,0,*50
1489096848.74,43134,9.5,73074.5,-8.59,-40.09,-40.65,0,*5F
1489096849.97,43135,9.56,73076.5,-8.59,-40.09,-40.65,0,*5E
1489096851.19,43136,9.5,73078.0,-8.59,-40.15,-40.73,0,*57
1489096852.4,43137,9.5,73076.0,-8.55,-40.35,-40.91,0,*54
1489096853.69,43138,9.5,73078.8,-8.51,-40.41,-40.85,0,*59
1489096854.93,43139,9.5,73076.0,-8.55,-40.09,-40.73,0,*59
1489096856.17,43140,9.56,73078.5,-8.55,-40.09,-40.73,0,*57
1489096857.4,43141,9.5,73074.5,-8.55,-40.29,-40.91,0,*58
1489096858.63,43142,9.56,73076.3,-8.55,-40.35,-40.79,0,*50
1489096859.89,43143,9.56,73072.5,-8.59,-40.29,-40.97,0,*50
1489096861.09,43144,9.56,73076.3,-8.59,-40.47,-41.11,0,*50
1489096862.34,43145,9.5,73074.0,-8.55,-40.29,-40.79,0,*5A
1489096863.55,43146,9.5,73072.5,-8.55,-40.47,-40.91,0,*57
1489096864.85,43147,9.5,73074.0,-8.51,-40.41,-40.85,0,*51
1489096866.1,43148,9.56,73078.0,-8.55,-40.21,-40.59,0,*5D
1489096867.34,43149,9.5,73078.0,-8.55,-40.09,-40.65,0,*59
1489096868.54,43150,9.56,73078.3,-8.55,-40.47,-41.11,0,*59
1489096869.84,43151,9.56,73078.8,-8.51,-40.41,-40.85,0,*56
1489096871.07,43152,9.56,73076.3,-8.55,-40.09,-40.73,0,*54
1489096872.29,43153,9.5,73074.8,-8.55,-40.47,-40.91,0,*53
1489096873.55,43154,9.56,73076.5,-8.51,-40.09,-40.65,0,*51
1489096874.81,43155,9.5,73072.0,-8.51,-39.91,-40.29,0,*57
1489096876.11,43156,9.5,73074.0,-8.51,-40.09,-40.59,0,*5C
1489096877.36,43157,9.5,73074.0,-8.55,-40.29,-40.79,0,*59
1489096878.59,43158,9.5,73074.5,-8.51,-40.03,-40.47,0,*57
1489096879.82,43159,9.5,73074.3,-8.51,-40.03,-40.47,0,*56
1489096881.06,43160,9.56,73076.5,-8.49,-39.65,-40.21,0,*5B
1489096882.27,43161,9.5,73074.8,-8.49,-39.85,-40.35,0,*51
1489096883.51,43162,9.5,73074.3,-8.49,-39.59,-40.03,0,*56
1489096884.76,43163,9.5,73072.3,-8.49,-39.79,-40.15,0,*52
1489096886.05,43164,9.5,73070.0,-8.47,-39.79,-40.21,0,*5C
1489096887.26,43165,9.5,73072.8,-8.49,-39.85,-40.35,0,*55
1489096888.53,43166,9.5,73072.3,-8.47,-40.03,-40.41,0,*5B
1489096889.78,43167,9.5,73076.8,-8.47,-39.97,-40.35,0,*5A
1489096891.03,43168,9.5,73072.5,-8.47,-40.15,-40.53,0,*51
1489096892.31,43169,9.5,73076.0,-8.47,-40.21,-40.59,0,*5D
1489096893.6,43170,9.5,73074.8,-8.47,-40.21,-40.59,0,*55
1489096894.83,43171,9.5,73072.3,-8.47,-40.35,-40.65,0,*5E
1489096896.06,43172,9.5,73072.8,-8.47,-40.35,-40.65,0,*5D
1489096897.34,43173,9.5,73076.8,-8.47,-40.21,-40.79,0,*54
1489096898.6,43174,9.56,73076.5,-8.47,-40.35,-40.97,0,*56
1489096899.9,43175,9.5,73072.8,-8.47,-40.41,-40.85,0,*57
1489096901.2,43176,9.5,73072.8,-8.47,-40.41,-40.97,0,*57
1489096902.46,43177,9.5,73074.3,-8.47,-40.59,-41.17,0,*56
1489096903.72,43178,9.5,73074.0,-8.47,-40.59,-41.03,0,*5C
1489096904.95,43179,9.5,73068.3,-8.49,-40.65,-41.23,0,*5E
1489096906.2,43180,9.5,73072.3,-8.47,-40.21,-40.65,0,*55
1489096907.5,43181,9.5,73070.3,-8.47,-40.41,-40.97,0,*5F
1489096908.77,43182,9.5,73070.5,-8.47,-40.59,-41.03,0,*59
1489096910.0,43183,9.5,73072.0,-8.47,-40.53,-41.03,0,*52
1489096911.26,43184,9.5,73072.3,-8.47,-40.53,-40.97,0,*59
1489096912.47,43185,9.5,73074.3,-8.49,-40.65,-41.17,0,*5A
1489096913.67,43186,9.5,73068.0,-8.49,-40.65,-41.17,0,*59
1489096914.9,43187,9.5,73072.0,-8.49,-40.79,-41.41,0,*56
1489096916.16,43188,9.5,73076.0,-8.49,-40.97,-41.35,0,*5A
1489096917.42,43189,9.5,73076.3,-8.49,-40.97,-41.35,0,*5B
1489096918.62,43190,9.56,73078.5,-8.49,-40.65,-41.17,0,*5E
1489096919.88,43191,9.5,73078.8,-8.49,-40.79,-41.23,0,*55
1489096921.08,43192,9.5,73076.5,-8.49,-40.65,-41.17,0,*5C
1489096922.35,43193,9.5,73076.8,-8.47,-40.59,-41.03,0,*59
1489096923.55,43194,9.5,73074.3,-8.49,-40.65,-41.17,0,*5A
1489096924.81,43195,9.5,73076.8,-8.51,-40.85,-41.29,0,*51
1489096926.05,43196,9.5,73076.5,-8.51,-41.03,-41.49,0,*5B
1489096927.33,43197,9.5,73076.5,-8.51,-40.85,-41.23,0,*59
1489096928.59,43198,9.5,73078.0,-8.51,-40.21,-40.65,0,*5B
1489096929.81,43199,9.5,73076.8,-8.49,-40.21,-40.65,0,*53
1489096931.04,43200,9.5,73076.3,-8.49,-40.21,-40.65,0,*50
1489096932.28,43201,9.5,73072.8,-8.49,-40.41,-40.65,0,*57
1489096933.54,43202,9.5,73070.8,-8.49,-40.41,-40.79,0,*59
1489096934.75,43203,9.56,73078.5,-8.49,-40.53,-41.03,0,*57
1489096935.98,43204,9.56,73076.8,-8.49,-40.59,-41.17,0,*5F
1489096937.25,43205,9.5,73068.3,-8.49,-40.41,-40.85,0,*5D
1489096938.47,43206,9.5,73070.3,-8.49,-40.21,-40.65,0,*56
1489096939.72,43207,9.5,73068.0,-8.47,-40.15,-40.53,0,*5B
1489096940.95,43208,9.56,73068.5,-8.49,-40.21,-40.65,0,*58
1489096942.24,43209,9.5,73068.5,-8.47,-40.59,-40.97,0,*55
1489096943.5,43210,9.5,73066.3,-8.47,-40.79,-41.17,0,*56
1489096944.76,43211,9.5,73070.3,-8.47,-40.53,-40.97,0,*56
1489096946.02,43212,9.5,73070.8,-8.47,-40.59,-41.03,0,*53
1489096947.28,43213,9.5,73072.8,-8.47,-40.53,-40.97,0,*54
1489096948.5,43214,9.5,73064.0,-8.49,-40.03,-40.53,0,*50
1489096949.74,43215,9.5,73066.5,-8.49,-40.41,-41.03,0,*53
1489096951.0,43216,9.5,73068.5,-8.47,-40.79,-41.03,0,*55
1489096952.28,43217,9.5,73068.8,-8.47,-40.79,-41.23,0,*56
1489096953.57,43218,9.56,73070.5,-8.47,-40.85,-41.23,0,*5A
1489096954.77,43219,9.5,73072.3,-8.49,-40.65,-41.17,0,*5C
1489096956.03,43220,9.56,73078.5,-8.49,-40.79,-41.23,0,*5C
1489096957.3,43221,9.56,73078.3,-8.47,-40.59,-41.03,0,*53
1489096958.51,43222,9.5,73076.5,-8.49,-40.03,-40.53,0,*55
1489096959.73,43223,9.5,73076.0,-8.49,-40.15,-40.53,0,*53
1489096960.96,43224,9.5,73080.3,-8.49,-40.03,-40.41,0,*50
1489096962.17,43225,9.5,73078.5,-8.49,-40.03,-40.53,0,*52
1489096963.42,43226,9.5,73070.3,-8.49,-40.15,-40.41,0,*55
1489096964.68,43227,9.56,73068.0,-8.47,-40.21,-40.53,0,*5E
1489096965.95,43228,9.5,73064.5,-8.49,-40.41,-40.97,0,*51
1489096967.24,43229,9.5,73064.0,-8.47,-40.41,-40.79,0,*5E
1489096968.47,43230,9.56,73066.3,-8.47,-40.35,-40.65,0,*58
1489096969.73,43231,9.5,73064.5,-8.47,-40.53,-40.85,0,*57
1489096970.99,43232,9.5,73066.0,-8.47,-40.97,-41.41,0,*55
1489096972.25,43233,9.5,73068.8,-8.47,-40.97,-41.41,0,*54
1489096973.51,43234,9.5,73068.0,-8.47,-40.97,-41.41,0,*53
1489096974.8,43235,9.5,73072.3,-8.47,-40.97,-41.35,0,*51
1489096976.06,43236,9.5,73072.5,-8.49,-40.97,-41.35,0,*5C
1489096977.32,43237,9.5,73070.5,-8.49,-40.97,-41.23,0,*5A
1489096978.55,43238,9.5,73070.0,-8.49,-40.79,-41.17,0,*52
1489096979.81,43239,9.5,73072.8,-8.49,-40.97,-41.23,0,*54
1489096981.08,43240,9.5,73072.3,-8.47,-41.03,-41.35,0,*5F
1489096982.31,43241,9.5,73066.8,-8.49,-40.59,-41.17,0,*5E
1489096983.57,43242,9.5,73066.8,-8.49,-40.59,-40.85,0,*57
1489096984.78,43243,9.5,73070.0,-8.49,-40.65,-41.03,0,*56
1489096986.02,43244,9.5,73064.5,-8.51,-40.73,-41.03,0,*5F
1489096987.25,43245,9.5,73060.0,-8.49,-40.79,-41.17,0,*58
1489096988.54,43246,9.5,73068.0,-8.47,-40.85,-41.23,0,*51
1489096989.74,43247,9.5,73070.5,-8.49,-40.65,-41.17,0,*57
1489096991.0,43248,9.5,73068.5,-8.49,-40.85,-41.23,0,*51
1489096992.24,43249,9.5,73070.5,-8.49,-40.97,-41.17,0,*54
1489096993.44,43250,9.5,73070.5,-8.55,-41.11,-41.49,0,*55
1489096994.7,43251,9.5,73070.0,-8.51,-40.85,-41.11,0,*51
1489096995.97,43252,9.5,73070.8,-8.51,-41.03,-41.23,0,*5C
1489096997.2,43253,9.5,73068.8,-8.51,-40.73,-41.11,0,*5A
1489096998.46,43254,9.56,73074.3,-8.51,-40.85,-41.11,0,*54
1489096999.7,43255,9.5,73072.8,-8.51,-41.03,-41.41,0,*5F
1489097000.94,43256,9.5,73072.5,-8.55,-41.11,-41.55,0,*5E
1489097002.22,43257,9.5,73070.5,-8.51,-40.59,-40.85,0,*5A
1489097003.48,43258,9.5,73070.5,-8.51,-40.47,-40.79,0,*59
1489097004.71,43259,9.5,73070.3,-8.55,-41.17,-41.35,0,*51
1489097005.95,43260,9.5,73066.3,-8.51,-40.73,-41.03,0,*59
1489097007.21,43261,9.5,73068.0,-8.51,-40.41,-40.73,0,*5F
1489097008.44,43262,9.5,73066.5,-8.55,-40.79,-41.17,0,*50
1489097009.68,43263,9.5,73066.3,-8.51,-41.03,-41.29,0,*54
1489097010.92,43264,9.5,73066.3,-8.55,-41.17,-41.35,0,*5F
1489097012.15,43265,9.5,73068.3,-8.55,-41.11,-41.35,0,*58
1489097013.41,43266,9.5,73070.0,-8.55,-40.97,-41.35,0,*54
1489097014.64,43267,9.5,73070.8,-8.55,-40.79,-41.17,0,*55
1489097015.87,43268,9.5,73066.0,-8.55,-40.97,-41.11,0,*5C
1489097017.1,43269,9.5,73066.3,-8.55,-40.47,-40.79,0,*5F
1489097018.32,43270,9.5,73064.3,-8.55,-40.29,-40.47,0,*52
1489097019.53,43271,9.5,73062.8,-8.55,-40.35,-40.53,0,*5B
1489097020.74,43272,9.5,73068.3,-8.55,-40.47,-40.73,0,*5F
1489097021.95,43273,9.5,73068.5,-8.55,-40.91,-41.17,0,*56
1489097023.18,43274,9.5,73068.8,-8.55,-40.73,-40.97,0,*54
1489097024.44,43275,9.5,73068.0,-8.51,-40.59,-40.73,0,*53
1489097025.73,43276,9.5,73074.3,-8.51,-40.29,-40.59,0,*5F
1489097026.96,43277,9.5,73068.8,-8.51,-40.47,-40.73,0,*5E
1489097028.24,43278,9.5,73070.5,-8.51,-40.21,-40.41,0,*50
1489097029.47,43279,9.5,73070.8,-8.55,-40.29,-40.47,0,*5B
1489097030.72,43280,9.5,73068.5,-8.47,-39.97,-40.03,0,*55
1489097031.93,43281,9.5,73072.8,-8.49,-39.85,-40.03,0,*59
1489097033.15,43282,9.5,73074.0,-8.49,-39.85,-40.15,0,*5D
1489097034.36,43283,9.5,73070.8,-8.49,-39.85,-40.03,0,*5B
1489097035.62,43284,9.5,73070.5,-8.47,-39.79,-39.85,0,*51
1489097036.83,43285,9.56,73072.3,-8.49,-39.65,-39.85,0,*53
1489097038.07,43286,9.5,73068.5,-8.47,-39.85,-40.03,0,*50
1489097039.34,43287,9.5,73070.0,-8.45,-39.79,-39.97,0,*53
1489097040.64,43288,9.56,73070.0,-8.43,-39.59,-39.79,0,*58
1489097041.91,43289,9.5,73068.8,-8.45,-39.79,-39.97,0,*5D
1489097043.2,43290,9.5,73070.3,-8.43,-39.79,-40.09,0,*5A
1489097044.44,43291,9.5,73070.5,-8.45,-39.97,-40.15,0,*50
1489097045.71,43292,9.5,73074.3,-8.43,-39.71,-40.15,0,*5D
1489097046.99,43293,9.5,73072.8,-8.43,-40.09,-40.29,0,*52
1489097048.24,43294,9.5,73074.3,-8.43,-39.97,-40.15,0,*53
1489097049.51,43295,9.5,73074.5,-8.43,-40.09,-40.15,0,*5B
1489097050.75,43296,9.5,73078.8,-8.43,-39.91,-40.15,0,*57
1489097051.98,43297,9.5,73064.3,-8.41,-40.03,-40.09,0,*5C
1489097053.24,43298,9.5,73066.3,-8.39,-40.03,-40.29,0,*5E
1489097054.46,43299,9.5,73066.5,-8.41,-40.29,-40.47,0,*50
1489097055.7,43300,9.5,73068.0,-8.41,-40.41,-40.65,0,*5F
1489097056.95,43301,9.5,73066.5,-8.39,-40.29,-40.53,0,*5A
1489097058.22,43302,9.5,73066.5,-8.39,-40.41,-40.73,0,*55
1489097059.45,43303,9.5,73070.3,-8.39,-40.65,-40.91,0,*5E
1489097060.69,43304,9.5,73066.8,-8.39,-40.91,-41.03,0,*58
1489097061.91,43305,9.56,73070.0,-8.41,-40.91,-40.91,0,*5C
1489097063.11,43306,9.56,73068.3,-8.41,-40.47,-40.73,0,*58
1489097064.34,43307,9.5,73066.3,-8.39,-40.47,-40.65,0,*51
1489097065.55,43308,9.5,73064.0,-8.41,-40.65,-40.91,0,*5A
1489097066.81,43309,9.56,73064.8,-8.39,-40.85,-41.03,0,*50
1489097068.08,43310,9.5,73070.3,-8.39,-40.85,-41.03,0,*58
1489097069.29,43311,9.5,73070.5,-8.41,-40.73,-41.03,0,*5F
1489097070.53,43312,9.5,73070.8,-8.39,-40.91,-41.03,0,*5F
1489097071.75,43313,9.5,73064.3,-8.41,-41.03,-41.03,0,*5B
1489097072.97,43314,9.5,73068.8,-8.41,-41.03,-41.11,0,*5F
1489097074.25,43315,9.5,73068.3,-8.39,-41.23,-41.23,0,*52
1489097075.47,43316,9.5,73070.3,-8.41,-40.91,-41.03,0,*54
1489097076.69,43317,9.5,73070.8,-8.41,-41.03,-41.11,0,*5C
1489097077.93,43318,9.5,73070.5,-8.43,-40.91,-41.11,0,*5B
1489097079.18,43319,9.5,73074.0,-8.43,-40.97,-41.17,0,*5A
1489097080.4,43320,9.5,73072.0,-8.45,-40.91,-41.17,0,*50
1489097081.63,43321,9.5,73070.8,-8.43,-41.11,-41.17,0,*5E
1489097082.89,43322,9.5,73074.0,-8.43,-40.97,-41.11,0,*54
1489097084.15,43323,9.5,73072.5,-8.43,-40.79,-41.11,0,*55
1489097085.39,43324,9.5,73068.5,-8.43,-40.91,-41.11,0,*54
1489097086.61,43325,9.5,73070.3,-8.45,-40.91,-41.11,0,*53
1489097087.89,43326,9.5,73068.0,-8.43,-40.79,-40.97,0,*5F
1489097089.11,43327,9.5,73070.3,-8.45,-41.11,-41.11,0,*58
1489097090.32,43328,9.5,73070.0,-8.45,-41.11,-41.17,0,*51
1489097091.54,43329,9.56,73072.0,-8.45,-40.91,-41.11,0,*5F
1489097092.78,43330,9.5,73070.5,-8.43,-40.73,-40.91,0,*54
1489097093.99,43331,9.5,73064.8,-8.45,-40.53,-40.53,0,*5F
1489097095.22,43332,9.5,73066.5,-8.43,-40.47,-40.35,0,*5F
1489097096.47,43333,9.5,73064.8,-8.43,-40.47,-40.59,0,*54
1489097097.74,43334,9.56,73068.5,-8.43,-40.91,-40.97,0,*5A
1489097099.01,43335,9.56,73070.0,-8.45,-40.79,-40.97,0,*5B
1489097100.26,43336,9.5,73068.3,-8.43,-40.53,-40.59,0,*54
1489097101.52,43337,9.5,73068.0,-8.45,-40.59,-40.79,0,*5B
1489097102.78,43338,9.56,73072.3,-8.43,-40.73,-40.97,0,*5A
1489097104.05,43339,9.56,73074.8,-8.43,-40.91,-40.97,0,*57
1489097105.28,43340,9.5,73068.3,-8.43,-41.11,-41.17,0,*59
1489097106.5,43341,9.56,73074.0,-8.45,-40.73,-40.73,0,*58
1489097107.72,43342,9.5,73070.5,-8.43,-40.53,-40.73,0,*5F
1489097108.98,43343,9.56,73070.8,-8.43,-40.47,-40.59,0,*53
1489097110.21,43344,9.5,73070.3,-8.43,-40.47,-40.53,0,*5E
1489097111.45,43345,9.5,73068.3,-8.45,-40.47,-40.59,0,*53
1489097112.68,43346,9.56,73074.0,-8.43,-40.47,-40.73,0,*5E
1489097113.91,43347,9.56,73072.5,-8.43,-40.47,-40.47,0,*58
1489097115.18,43348,9.5,73070.0,-8.43,-40.15,-40.09,0,*5A
1489097116.47,43349,9.5,73070.0,-8.43,-40.09,-40.09,0,*56
1489097117.68,43350,9.56,73070.5,-8.41,-39.85,-39.91,0,*59
1489097118.89,43351,9.5,73070.5,-8.41,-39.91,-40.03,0,*58
1489097120.15,43352,9.56,73064.8,-8.41,-40.09,-40.21,0,*54
1489097121.43,43353,9.5,73070.5,-8.39,-40.29,-40.21,0,*58
1489097122.67,43354,9.56,73068.0,-8.41,-40.41,-40.53,0,*5B
1489097123.88,43355,9.5,73070.0,-8.41,-40.65,-40.91,0,*52
1489097125.1,43356,9.5,73070.3,-8.39,-40.53,-40.73,0,*57
1489097126.33,43357,9.56,73070.8,-8.39,-40.53,-40.65,0,*51
1489097127.56,43358,9.5,73074.0,-8.39,-40.73,-40.91,0,*57
1489097128.82,43359,9.5,73072.3,-8.39,-40.85,-40.91,0,*5F
1489097130.04,43360,9.5,73070.3,-8.41,-40.91,-40.91,0,*5F
1489097131.26,43361,9.5,73076.5,-8.41,-40.91,-40.91,0,*5E
1489097132.47,43362,9.5,73076.8,-8.41,-40.47,-40.47,0,*5D
1489097133.72,43363,9.5,73062.5,-8.39,-40.03,-40.09,0,*59
1489097134.95,43364,9.5,73062.0,-8.39,-40.03,-40.03,0,*54
1489097136.21,43365,9.5,73068.3,-8.41,-40.09,-40.21,0,*50
1489097137.44,43366,9.5,73074.0,-8.39,-40.53,-40.73,0,*54
1489097138.66,43367,9.5,73062.8,-8.39,-40.53,-40.65,0,*52
1489097139.9,43368,9.5,73064.0,-8.39,-40.73,-40.91,0,*54
1489097141.13,43369,9.5,73066.0,-8.39,-41.11,-41.11,0,*59
1489097142.42,43370,9.5,73068.8,-8.39,-41.23,-41.23,0,*51
1489097143.68,43371,9.5,73068.8,-8.39,-41.11,-41.23,0,*51
1489097144.97,43372,9.5,73072.5,-8.39,-41.23,-41.23,0,*53
1489097146.23,43373,9.5,73070.8,-8.41,-41.23,-41.23,0,*5D
1489097147.44,43374,9.5,73072.3,-8.41,-41.29,-41.29,0,*5A
1489097148.67,43375,9.5,73072.5,-8.39,-41.41,-41.29,0,*5A
1489097149.88,43376,9.56,73078.0,-8.41,-41.41,-41.49,0,*50
1489097151.08,43377,9.5,73074.8,-8.41,-41.29,-41.29,0,*59
1489097152.29,43378,9.5,73072.0,-8.41,-41.41,-41.41,0,*56
1489097153.5,43379,9.5,73072.8,-8.41,-41.29,-41.49,0,*51
1489097154.73,43380,9.5,73074.0,-8.41,-40.85,-40.91,0,*54
1489097156.0,43381,9.5,73070.8,-8.43,-40.91,-40.97,0,*54
1489097157.23,43382,9.5,73078.0,-8.43,-41.11,-41.11,0,*51
1489097158.48,43383,9.5,73072.5,-8.45,-40.97,-41.17,0,*5F
1489097159.72,43384,9.5,73074.0,-8.45,-40.97,-41.11,0,*5E
1489097160.93,43385,9.5,73072.8,-8.45,-41.17,-41.11,0,*56
1489097162.17,43386,9.5,73076.0,-8.43,-41.11,-41.11,0,*55
1489097163.4,43387,9.5,73072.0,-8.43,-41.17,-41.17,0,*54
1489097164.63,43388,9.5,73076.0,-8.43,-41.11,-41.17,0,*5D
1489097165.86,43389,9.5,73074.0,-8.43,-41.29,-41.17,0,*57
1489097167.09,43390,9.5,73072.0,-8.43,-41.17,-41.11,0,*54
1489097168.3,43391,9.5,73076.0,-8.45,-41.11,-41.17,0,*53
1489097169.55,43392,9.5,73070.8,-8.45,-41.35,-41.17,0,*56
1489097170.82,43393,9.5,73072.0,-8.45,-41.35,-41.35,0,*57
1489097172.04,43394,9.56,73076.8,-8.45,-41.17,-41.11,0,*56
1489097173.25,43395,9.5,73074.8,-8.45,-41.29,-41.29,0,*51
1489097174.51,43396,9.5,73074.5,-8.47,-41.35,-41.41,0,*53
1489097175.8,43397,9.5,73072.3,-8.47,-41.23,-41.35,0,*56
1489097177.1,43398,9.5,73072.0,-8.47,-41.23,-41.23,0,*5E
1489097178.39,43399,9.5,73070.8,-8.47,-41.23,-41.23,0,*5F
1489097179.68,43400,9.5,73074.0,-8.47,-41.35,-41.23,0,*5F
1489097180.97,43401,9.5,73072.0,-8.47,-41.23,-41.23,0,*59
1489097182.24,43402,9.5,73074.5,-8.47,-41.23,-41.17,0,*5D
1489097183.52,43403,9.5,73076.8,-8.47,-40.85,-40.79,0,*58
1489097184.78,43404,9.5,73080.3,-8.47,-40.53,-40.59,0,*56
1489097186.04,43405,9.5,73068.5,-8.47,-40.41,-40.35,0,*5E
1489097187.27,43406,9.5,73068.5,-8.47,-40.53,-40.53,0,*5E
1489097188.55,43407,9.5,73072.3,-8.47,-40.79,-40.79,0,*5F
1489097189.81,43408,9.5,73072.5,-8.47,-40.97,-41.03,0,*5C
1489097191.11,43409,9.5,73074.8,-8.47,-41.35,-41.23,0,*56
1489097192.39,43410,9.5,73070.3,-8.47,-40.97,-40.85,0,*5A
1489097193.64,43411,9.5,73074.3,-8.47,-41.03,-41.03,0,*58
1489097194.91,43412,9.5,73074.0,-8.47,-41.23,-41.17,0,*5C
1489097196.17,43413,9.5,73074.5,-8.47,-41.23,-41.17,0,*5D
1489097197.42,43414,9.5,73076.0,-8.47,-41.03,-41.03,0,*5D
1489097198.68,43415,9.5,73078.3,-8.47,-41.23,-41.17,0,*5B
1489097199.9,43416,9.5,73076.8,-8.49,-41.03,-41.03,0,*51
1489097201.19,43417,9.5,73078.3,-8.47,-41.35,-41.23,0,*59
1489097202.43,43418,9.5,73074.5,-8.49,-41.35,-41.17,0,*5F
1489097203.67,43419,9.5,73076.5,-8.47,-41.41,-41.17,0,*53
1489097204.91,43420,9.5,73078.0,-8.49,-41.23,-41.17,0,*53
1489097206.18,43421,9.5,73078.5,-8.47,-41.23,-41.17,0,*5C
1489097207.42,43422,9.5,73074.5,-8.47,-41.03,-41.17,0,*5D
1489097208.68,43423,9.5,73076.8,-8.49,-41.35,-41.23,0,*50
1489097209.95,43424,9.56,73080.0,-8.49,-41.35,-41.23,0,*57
1489097211.24,43425,9.56,73082.8,-8.47,-41.35,-41.23,0,*58
1489097212.48,43426,9.5,73078.0,-8.49,-41.35,-41.17,0,*52
1489097213.74,43427,9.5,73078.3,-8.49,-41.35,-41.23,0,*54
1489097215.01,43428,9.5,73076.8,-8.49,-41.35,-41.23,0,*5B
1489097216.25,43429,9.56,73078.0,-8.51,-41.49,-41.41,0,*5C
1489097217.45,43430,9.56,73082.3,-8.55,-41.61,-41.49,0,*52
1489097218.66,43431,9.5,73078.0,-8.55,-41.61,-41.41,0,*5B
1489097219.87,43432,9.5,73076.3,-8.55,-41.41,-41.29,0,*54
1489097221.13,43433,9.5,73076.3,-8.51,-41.41,-41.23,0,*5B
1489097222.37,43434,9.56,73080.0,-8.51,-41.41,-41.29,0,*56
1489097223.61,43435,9.56,73078.3,-8.51,-41.49,-41.41,0,*51
1489097224.84,43436,9.5,73078.8,-8.55,-41.67,-41.49,0,*52
1489097226.07,43437,9.5,73072.8,-8.55,-41.55,-41.49,0,*52
1489097227.3,43438,9.5,73072.8,-8.55,-41.29,-41.23,0,*5A
1489097228.53,43439,9.5,73076.8,-8.55,-41.29,-41.23,0,*5B
1489097229.77,43440,9.5,73078.5,-8.55,-41.35,-41.17,0,*5F
1489097230.97,43441,9.5,73078.5,-8.55,-41.29,-41.17,0,*53
1489097232.21,43442,9.5,73080.0,-8.55,-41.35,-41.29,0,*50
1489097233.45,43443,9.5,73078.3,-8.55,-41.17,-40.97,0,*55
1489097234.69,43444,9.5,73072.8,-8.55,-40.79,-40.79,0,*5B
1489097235.92,43445,9.5,73074.8,-8.51,-40.65,-40.65,0,*5E
1489097237.14,43446,9.5,73072.3,-8.55,-40.91,-40.91,0,*59
1489097238.35,43447,9.5,73070.5,-8.55,-41.11,-41.11,0,*58
1489097239.61,43448,9.5,73070.3,-8.51,-41.23,-41.11,0,*52
1489097240.82,43449,9.56,73076.8,-8.55,-41.29,-41.17,0,*5B
1489097242.02,43450,9.5,73072.5,-8.55,-41.17,-41.17,0,*5E
1489097243.26,43451,9.5,73074.8,-8.55,-41.35,-41.17,0,*5F
1489097244.5,43452,9.5,73072.3,-8.51,-41.41,-41.11,0,*5D
1489097245.7,43453,9.5,73076.3,-8.55,-41.29,-41.17,0,*50
1489097246.9,43454,9.5,73072.5,-8.59,-41.29,-41.17,0,*5B
1489097248.11,43455,9.5,73076.3,-8.55,-41.11,-41.11,0,*5B
1489097249.32,43456,9.5,73074.0,-8.55,-41.17,-41.17,0,*58
1489097250.52,43457,9.5,73072.5,-8.59,-41.11,-41.11,0,*55
1489097251.8,43458,9.5,73076.8,-8.61,-41.03,-40.97,0,*5D
1489097253.03,43459,9.5,73072.3,-8.59,-41.11,-40.97,0,*54
1489097254.29,43460,9.56,73076.5,-8.59,-40.97,-40.97,0,*51
1489097255.49,43461,9.5,73074.3,-8.59,-41.11,-41.11,0,*50
1489097256.7,43462,9.5,73074.5,-8.59,-41.11,-41.11,0,*53
1489097257.93,43463,9.5,73078.8,-8.59,-41.35,-41.11,0,*54
1489097259.17,43464,9.5,73076.8,-8.59,-41.11,-40.97,0,*5A
1489097260.38,43465,9.5,73076.8,-8.59,-40.91,-40.91,0,*54
1489097261.65,43466,9.5,73074.0,-8.61,-40.97,-41.03,0,*50
1489097262.87,43467,9.56,73076.3,-8.59,-40.79,-40.65,0,*5B
1489097264.08,43468,9.5,73072.5,-8.55,-40.73,-40.53,0,*57
1489097265.27,43469,9.5,73068.3,-8.55,-40.65,-40.35,0,*51
1489097266.48,43470,9.5,73070.0,-8.55,-40.65,-40.53,0,*59
1489097267.73,43471,9.5,73072.3,-8.55,-40.79,-40.79,0,*5D
1489097268.93,43472,9.5,73068.3,-8.55,-41.11,-41.11,0,*5E
1489097270.14,43473,9.56,73072.0,-8.55,-41.29,-41.17,0,*52
1489097271.37,43474,9.5,73070.3,-8.55,-41.49,-41.35,0,*53
1489097272.58,43475,9.5,73072.3,-8.55,-41.49,-41.29,0,*5F
1489097273.81,43476,9.5,73074.8,-8.55,-41.49,-41.35,0,*51
1489097275.01,43477,9.56,73076.3,-8.55,-41.49,-41.49,0,*5B
1489097276.28,43478,9.56,73078.8,-8.55,-41.67,-41.55,0,*55
1489097277.51,43479,9.5,73074.0,-8.59,-41.55,-41.17,0,*5F
1489097278.71,43480,9.5,73074.8,-8.59,-41.29,-41.17,0,*52
1489097279.97,43481,9.5,73074.8,-8.59,-41.67,-41.35,0,*59
1489097281.17,43482,9.5,73074.8,-8.59,-41.29,-41.29,0,*5D
1489097282.37,43483,9.5,73074.0,-8.59,-41.49,-41.29,0,*5A
1489097283.63,43484,9.5,73074.5,-8.59,-41.55,-41.35,0,*5D
1489097284.9,43485,9.5,73072.8,-8.61,-41.41,-41.23,0,*55
1489097286.16,43486,9.5,73074.3,-8.61,-41.17,-40.97,0,*5B
1489097287.41,43487,9.56,73074.8,-8.61,-41.17,-41.03,0,*56
1489097288.61,43488,9.5,73076.0,-8.59,-41.17,-41.11,0,*51
1489097289.84,43489,9.5,73072.0,-8.59,-40.97,-40.91,0,*50
1489097291.08,43490,9.5,73074.3,-8.59,-40.97,-40.91,0,*58
1489097292.37,43491,9.5,73072.5,-8.61,-41.35,-41.23,0,*53
1489097293.61,43492,9.56,73076.0,-8.59,-41.17,-40.97,0,*55
1489097294.88,43493,9.56,73076.0,-8.61,-41.03,-40.97,0,*5A
1489097296.15,43494,9.5,73074.5,-8.61,-41.17,-40.97,0,*58
1489097297.38,43495,9.5,73076.0,-8.59,-40.91,-40.79,0,*5D
1489097298.67,43496,9.5,73070.8,-8.61,-40.85,-40.85,0,*53
1489097299.92,43497,9.5,73076.3,-8.59,-40.97,-40.79,0,*59
1489097301.15,43498,9.5,73074.8,-8.59,-40.97,-40.91,0,*50
1489097302.39,43499,9.5,73076.0,-8.59,-41.11,-40.97,0,*58
1489097303.65,43500,9.5,73074.3,-8.61,-41.35,-41.17,0,*5D
1489097304.89,43501,9.5,73074.3,-8.59,-41.11,-40.97,0,*58
1489097306.09,43502,9.5,73078.5,-8.59,-40.65,-40.53,0,*51
1489097307.28,43503,9.5,73076.0,-8.59,-40.65,-40.47,0,*55
1489097308.51,43504,9.5,73070.3,-8.59,-40.79,-40.65,0,*5F
1489097309.71,43505,9.5,73078.3,-8.59,-41.29,-41.11,0,*58
1489097310.93,43506,9.5,73078.5,-8.55,-40.79,-40.53,0,*54
1489097312.13,43507,9.5,73072.5,-8.59,-40.65,-40.35,0,*54